Weather History for Meridian, MS

Change the Weather History Date:

Sunday, December 9, 2012

  Actual Average Record
Temperature  
Mean Temperature 64 °F 48 °F  
Max Temperature 74 °F 60 °F 81 °F (1972)
Min Temperature 54 °F 37 °F 15 °F (1917)
Degree Days  
Heating Degree Days 1 17  
Month to date heating degree days 36 144  
Since 1 July heating degree days 563 594  
Cooling Degree Days 0 0  
Month to date cooling degree days 0 0  
Year to date cooling degree days 2177 2029  
Growing Degree Days 16 (Base 50)    
Moisture  
Dew Point 60 °F    
Average Humidity 83    
Maximum Humidity 100    
Minimum Humidity 66    
Precipitation  
Precipitation 0.00 in 0.18 in 2.25 in (1966)
Month to date precipitation 1.07 1.63  
Year to date precipitation 54.74 52.73  
Sea Level Pressure  
Sea Level Pressure 29.96 in    
Wind  
Wind Speed 10 mph (South)    
Max Wind Speed 20 mph    
Max Gust Speed 24 mph    
Visibility 7 miles    
Events      
T = Trace of Precipitation, MM = Missing Value Source: NWS Daily Summary

Daily Weather History Graph

Daily Weather History Graph

Search for Another Location

Airport:

Trip Planner

Search our weather history database for the weather conditions in past years. The results will help you decide how hot, cold, wet, or windy it might be!

Date:

Astronomy

Dec. 09, 2012 Rise Set
Actual Time 6:45 AM CST 4:50 PM CST
Civil Twilight 6:18 AM CST 5:17 PM CST
Nautical Twilight 5:47 AM CST 5:47 PM CST
Astronomical Twilight 5:17 AM CST 6:17 PM CST
Moon 2:28 AM CST (12/9) 1:48 PM CST (12/9)
Length of Visible Light 10h 59m
Length of Day
10h 04m
Waning Crescent, 18% of the Moon is Illuminated
Dec 9
Waning Crescent
Dec 13
New
Dec 19
First Quarter
Dec 28
Full
Jan 4
Last Quarter

Hourly Weather History & Observations

Time (CST) Temp. Dew Point Humidity Pressure Visibility Wind Dir Wind Speed Gust Speed Precip Events Conditions
12:08 AM 55.4 °F 55.4 °F 100% 29.97 in 3.0 mi SSW 5.8 mph - N/A   Scattered Clouds
12:58 AM 55.9 °F 55.9 °F 100% 29.97 in 5.0 mi South 5.8 mph - N/A   Clear
1:58 AM 55.0 °F 55.0 °F 100% 29.97 in 4.0 mi Calm Calm - N/A   Clear
2:17 AM 55.4 °F 55.4 °F 100% 29.98 in 1.5 mi SSW 3.5 mph - N/A   Clear
2:20 AM 55.4 °F 55.4 °F 100% 29.97 in 0.8 mi Calm Calm - N/A   Mist
2:27 AM 55.4 °F 53.6 °F 94% 29.97 in 1.2 mi South 3.5 mph - N/A   Partly Cloudy
2:30 AM 55.4 °F 53.6 °F 94% 29.97 in 3.0 mi South 3.5 mph - N/A   Partly Cloudy
2:41 AM 55.4 °F 53.6 °F 94% 29.97 in 1.8 mi South 5.8 mph - N/A   Scattered Clouds
2:49 AM 55.4 °F 55.4 °F 100% 29.97 in 2.0 mi South 6.9 mph - N/A   Mostly Cloudy
2:56 AM 57.2 °F 57.2 °F 100% 29.98 in 5.0 mi South 9.2 mph - N/A   Mostly Cloudy
2:57 AM 57.0 °F 57.0 °F 100% 29.97 in 5.0 mi South 9.2 mph - N/A   Mostly Cloudy
3:12 AM 57.2 °F 57.2 °F 100% 29.98 in 1.8 mi South 9.2 mph - N/A   Overcast
3:51 AM 57.2 °F 57.2 °F 100% 29.99 in 2.5 mi SSW 8.1 mph - N/A   Overcast
3:58 AM 57.9 °F 57.9 °F 100% 29.99 in 2.5 mi South 10.4 mph - N/A   Overcast
4:13 AM 57.2 °F 57.2 °F 100% 29.99 in 3.0 mi South 9.2 mph - N/A   Overcast
4:35 AM 57.2 °F 57.2 °F 100% 29.99 in 2.5 mi South 9.2 mph - N/A   Overcast
4:53 AM 57.2 °F 57.2 °F 100% 29.99 in 1.5 mi South 6.9 mph - N/A   Overcast
4:58 AM 57.9 °F 57.9 °F 100% 29.99 in 1.5 mi South 9.2 mph - N/A   Overcast
5:33 AM 59.0 °F 59.0 °F 100% 30.00 in 2.5 mi South 8.1 mph - 0.01 in   Overcast
5:40 AM 59.0 °F 59.0 °F 100% 30.01 in 3.0 mi South 5.8 mph - 0.01 in   Overcast
5:58 AM 59.0 °F 59.0 °F 100% 30.01 in 5.0 mi South 9.2 mph - 0.01 in   Overcast
6:13 AM 59.0 °F 59.0 °F 100% 30.01 in 6.0 mi South 9.2 mph - N/A   Overcast
6:58 AM 60.1 °F 59.0 °F 96% 30.02 in 7.0 mi South 6.9 mph - N/A   Overcast
7:58 AM 61.0 °F 60.1 °F 97% 30.04 in 7.0 mi SSW 5.8 mph - N/A   Overcast
8:48 AM 62.6 °F 60.8 °F 94% 30.04 in 10.0 mi South 8.1 mph - N/A   Overcast
8:58 AM 63.0 °F 60.1 °F 90% 30.04 in 10.0 mi South 8.1 mph - N/A   Mostly Cloudy
9:14 AM 64.4 °F 60.8 °F 88% 30.04 in 10.0 mi SSW 10.4 mph - N/A   Scattered Clouds
9:58 AM 68.0 °F 59.0 °F 73% 30.03 in 10.0 mi SSW 15.0 mph - N/A   Partly Cloudy
10:58 AM 70.0 °F 57.9 °F 65% 30.01 in 10.0 mi SSW 9.2 mph - N/A   Overcast
11:58 AM 72.0 °F 61.0 °F 68% 29.98 in 10.0 mi SSW 13.8 mph - N/A   Partly Cloudy
12:58 PM 72.0 °F 62.1 °F 71% 29.96 in 10.0 mi SSW 10.4 mph - N/A   Partly Cloudy
1:25 PM 71.6 °F 62.6 °F 73% 29.95 in 10.0 mi SSW 11.5 mph - N/A   Mostly Cloudy
1:43 PM 73.4 °F 62.6 °F 69% 29.95 in 10.0 mi SSW 13.8 mph - N/A   Mostly Cloudy
1:58 PM 73.0 °F 63.0 °F 71% 29.94 in 10.0 mi South 9.2 mph - N/A   Mostly Cloudy
2:58 PM 73.0 °F 63.0 °F 71% 29.93 in 10.0 mi South 9.2 mph - N/A   Mostly Cloudy
3:58 PM 72.0 °F 64.0 °F 76% 29.93 in 10.0 mi South 8.1 mph - N/A   Mostly Cloudy
4:58 PM 70.0 °F 64.0 °F 81% 29.92 in 10.0 mi SSE 5.8 mph - N/A   Mostly Cloudy
5:58 PM 69.1 °F 64.0 °F 84% 29.91 in 10.0 mi South 9.2 mph - N/A   Scattered Clouds
6:58 PM 69.1 °F 64.9 °F 87% 29.91 in 10.0 mi South 10.4 mph - N/A   Mostly Cloudy
7:36 PM 69.8 °F 64.4 °F 83% 29.90 in 10.0 mi SSE 11.5 mph - N/A   Mostly Cloudy
7:58 PM 69.1 °F 66.0 °F 90% 29.89 in 10.0 mi South 13.8 mph - N/A   Overcast
8:09 PM 69.8 °F 66.2 °F 88% 29.89 in 10.0 mi South 12.7 mph - N/A   Overcast
8:58 PM 69.1 °F 66.0 °F 90% 29.88 in 10.0 mi South 15.0 mph 21.9 mph N/A   Overcast
9:58 PM 69.1 °F 66.0 °F 90% 29.88 in 10.0 mi South 13.8 mph 20.7 mph N/A   Overcast
10:33 PM 69.8 °F 66.2 °F 88% 29.89 in 10.0 mi South 13.8 mph - N/A   Overcast
10:43 PM 69.8 °F 66.2 °F 88% 29.89 in 10.0 mi South 11.5 mph - N/A   Overcast
10:58 PM 69.1 °F 66.0 °F 90% 29.88 in 10.0 mi South 11.5 mph - N/A   Overcast
11:43 PM 69.8 °F 66.2 °F 88% 29.89 in 10.0 mi South 12.7 mph - N/A   Mostly Cloudy
11:58 PM 69.8 °F 66.2 °F 88% 29.88 in 10.0 mi South 11.5 mph - N/A   Overcast